Forside
METAR-TAF:

METAR-TAF

Lufthavne :

St. Paul Downtown Airport (Holman Field)

Saint Paul, Minnesota, USA

Breddekreds: 44-55-49N, længdekreds: 093-02-53W, højde: 214 m

Aktuelle vejr

Denne rapport blev lavet for 14 minutter siden, kl. 00:53 UTC
Vind 13 kt fra nordvest med vindstød på up til 22 kt
Temperatur 17°C
Fugtighed 34%
Tryk 1014 hPa
Sigt: 16.1 km
Brudte skyer i en højde af 8000 ft

METAR: KSTP 220053Z 32013G22KT 10SM BKN080 17/01 A2993 RMK AO2 SLP131 T01720011

Tid: 20:07 (01:07 UTC)


TAF: fraværende

Vejrobservationer og prognoser fra mere end 4000 lufthavne (METAR og TAF).

De gule og røde prikker repræsenterer de meteorologiske stationer.

Flyt musen over at se navnet på stationen.

Så klik over at se vejr observationer og prognoser.

At skifte det kort: Klik på de grønne knapper med et sort kors for at zoome ind; på den grønne knap med en bindestreg for at zoome ud; eller på de grønne pile for tilstødende kort.


METAR-TAF: